Location: Unspecified
(35.6961°N, 0.0000°E)
Time: 15:13:01
(UTC+00:00)

Vanguard 2 Rocket - Pass Details

Date: 25 May 2019
Orbit: 554 x 3326 km, 32.9° (Epoch: 19 June)

Event Time Altitude Azimuth Distance (km) Brightness Sun altitude
Rises 09:59:59 0° 280° (W) 6,071 10.8 60.5°
Reaches altitude 10° 10:04:46 10° 276° (W) 4,611 10.3 61.4°
Maximum altitude 10:15:53 53° 205° (SSW) 1,611 9.0 63.4°
Drops below altitude 10° 10:22:11 10° 129° (SE) 2,673 9.9 64.6°
Sets 10:24:16 0° 124° (SE) 3,390 10.2 64.9°
